Location: Gollag?dem
(17.0207°N, 80.7261°E)
Time: 12:11:05
(UTC+00:00)

Cosmos 1818 - Pass Details

Date: 03 August 2024
Orbit: 770 x 801 km, 65.0° (Epoch: 11 September)

Event Time Altitude Azimuth Distance (km) Brightness Sun altitude
Exits shadow 22:06:04 69° 67° (ENE) 841 3.7 -29.5°
Drops below altitude 10° 22:10:59 10° 28° (NNE) 2,355 6.7 -28.5°
Sets 22:13:25 0° 26° (NNE) 3,289 7.6 -28.0°
